OK1MNP-5 Weather Reports


time (UTC)temp
C
wind
direction
speed
KPH
gust
KPH
rain 1hr
cm
rain 24hr
cm
rain mn
cm
humidity
%
barometer
mb
20260502195924 -17 0 0.0 0.0 0.00 0.00 0.00 1016.4
20260502195135 -17 0 0.0 0.0 0.00 0.00 0.00 1016.3
20260502194347 -17 0 0.0 0.0 0.00 0.00 0.00 1016.3
20260502193559 -17 0 0.0 0.0 0.00 0.00 0.00 1016.2
20260502192811 -17 0 0.0 0.0 0.00 0.00 0.00 1016.2
20260502192025 -17 0 0.0 0.0 0.00 0.00 0.00 1016.1
20260502191229 -17 0 0.0 0.0 0.00 0.00 0.00 1016.1
20260502190442 -17 0 0.0 0.0 0.00 0.00 0.00 1016.0
20260502185653 -17 0 0.0 0.0 0.00 0.00 0.00 1015.9
20260502184905 -17 0 0.0 0.0 0.00 0.00 0.00 1015.8
20260502184111 -17 0 0.0 0.0 0.00 0.00 0.00 1015.7
20260502183324 -17 0 0.0 0.0 0.00 0.00 0.00 1015.6
20260502182531 -17 0 0.0 0.0 0.00 0.00 0.00 1015.5
20260502181743 -17 0 0.0 0.0 0.00 0.00 0.00 1015.5
20260502180956 -17 0 0.0 0.0 0.00 0.00 0.00 1015.4
20260502180208 -17 0 0.0 0.0 0.00 0.00 0.00 1015.4
20260502163620 -17 0 0.0 0.0 0.00 0.00 0.00 1015.4
20260502162833 -17 0 0.0 0.0 0.00 0.00 0.00 1015.6
20260502162045 -17 0 0.0 0.0 0.00 0.00 0.00 1015.6
20260502161259 -17 0 0.0 0.0 0.00 0.00 0.00 1015.8
20260502160511 -17 0 0.0 0.0 0.00 0.00 0.00 1015.9
20260502151828 -17 0 0.0 0.0 0.00 0.00 0.00 1016.3
20260502151041 -17 0 0.0 0.0 0.00 0.00 0.00 1016.4
20260502150253 -17 0 0.0 0.0 0.00 0.00 0.00 1016.5
20260502130553 -17 0 0.0 0.0 0.00 0.00 0.00 1017.8
20260502123444 -17 0 0.0 0.0 0.00 0.00 0.00 1018.2
20260502122656 -17 0 0.0 0.0 0.00 0.00 0.00 1018.2
20260502121909 -17 0 0.0 0.0 0.00 0.00 0.00 1018.3
20260502121122 -17 0 0.0 0.0 0.00 0.00 0.00 1018.4
20260502120333 -17 0 0.0 0.0 0.00 0.00 0.00 1018.6
20260502115545 -17 0 0.0 0.0 0.00 0.00 0.00 1018.7
20260502114758 -17 0 0.0 0.0 0.00 0.00 0.00 1018.8
20260502114007 -17 0 0.0 0.0 0.00 0.00 0.00 1018.9
20260502113218 -17 0 0.0 0.0 0.00 0.00 0.00 1019.0
20260502112431 -17 0 0.0 0.0 0.00 0.00 0.00 1019.0
20260502111643 -17 0 0.0 0.0 0.00 0.00 0.00 1019.2
20260502110855 -17 0 0.0 0.0 0.00 0.00 0.00 1019.4
20260502110108 -17 0 0.0 0.0 0.00 0.00 0.00 1019.4
20260502105320 -17 0 0.0 0.0 0.00 0.00 0.00 1019.5
20260502104528 -17 0 0.0 0.0 0.00 0.00 0.00 1019.6
20260502103741 -17 0 0.0 0.0 0.00 0.00 0.00 1019.6
20260502102953 -17 0 0.0 0.0 0.00 0.00 0.00 1019.7
20260502102206 -17 0 0.0 0.0 0.00 0.00 0.00 1019.6
20260502101419 -17 0 0.0 0.0 0.00 0.00 0.00 1019.8
20260502100632 -17 0 0.0 0.0 0.00 0.00 0.00 1019.4
20260502091158 63 0 0.0 0.0 0.00 0.00 0.00 1016.9
20260502090411 62 0 0.0 0.0 0.00 0.00 0.00 1017.1
20260502071501 47 0 0.0 0.0 0.00 0.00 0.00 1019.0
20260502070713 43 0 0.0 0.0 0.00 0.00 0.00 1019.3
20260502065927 46 0 0.0 0.0 0.00 0.00 0.00 1019.0
20260502065137 44 0 0.0 0.0 0.00 0.00 0.00 1019.3
20260502064342 42 0 0.0 0.0 0.00 0.00 0.00 1019.5
20260502063554 38 0 0.0 0.0 0.00 0.00 0.00 1019.9
20260502062807 -17 0 0.0 0.0 0.00 0.00 0.00 1020.2
20260502062019 40 0 0.0 0.0 0.00 0.00 0.00 1019.8
20260502061229 38 0 0.0 0.0 0.00 0.00 0.00 1019.9
20260502060441 -17 0 0.0 0.0 0.00 0.00 0.00 1020.2
20260502055653 -17 0 0.0 0.0 0.00 0.00 0.00 1020.2
20260502054905 -17 0 0.0 0.0 0.00 0.00 0.00 1020.5
20260502054114 -17 0 0.0 0.0 0.00 0.00 0.00 1020.9
20260502053326 -17 0 0.0 0.0 0.00 0.00 0.00 1020.8
20260502052539 -17 0 0.0 0.0 0.00 0.00 0.00 1021.0
20260502051747 -17 0 0.0 0.0 0.00 0.00 0.00 1021.2
20260502051000 -17 0 0.0 0.0 0.00 0.00 0.00 1021.4
20260502050213 -17 0 0.0 0.0 0.00 0.00 0.00 1021.6
20260502045425 -17 0 0.0 0.0 0.00 0.00 0.00 1021.7
20260502044638 -17 0 0.0 0.0 0.00 0.00 0.00 1021.9
20260502043848 -17 0 0.0 0.0 0.00 0.00 0.00 1022.3
20260502043101 -17 0 0.0 0.0 0.00 0.00 0.00 1023.3
20260502042313 -17 0 0.0 0.0 0.00 0.00 0.00 1023.6
20260502041526 -17 0 0.0 0.0 0.00 0.00 0.00 1023.5
20260502040739 -17 0 0.0 0.0 0.00 0.00 0.00 1023.5
20260502035948 -17 0 0.0 0.0 0.00 0.00 0.00 1023.5
20260502035201 -17 0 0.0 0.0 0.00 0.00 0.00 1023.5
20260502034412 -17 0 0.0 0.0 0.00 0.00 0.00 1023.6
20260502033624 -17 0 0.0 0.0 0.00 0.00 0.00 1023.6
20260502032837 -17 0 0.0 0.0 0.00 0.00 0.00 1023.6
20260502032050 -17 0 0.0 0.0 0.00 0.00 0.00 1023.5
20260502031303 -17 0 0.0 0.0 0.00 0.00 0.00 1023.4
20260502030515 -17 0 0.0 0.0 0.00 0.00 0.00 1023.4
20260502025728 -17 0 0.0 0.0 0.00 0.00 0.00 1023.4
20260502024940 -17 0 0.0 0.0 0.00 0.00 0.00 1023.5
20260502024148 -17 0 0.0 0.0 0.00 0.00 0.00 1023.5
20260502023400 -17 0 0.0 0.0 0.00 0.00 0.00 1023.5
20260502022612 -17 0 0.0 0.0 0.00 0.00 0.00 1023.5
20260502021825 -17 0 0.0 0.0 0.00 0.00 0.00 1023.5
20260502021037 -17 0 0.0 0.0 0.00 0.00 0.00 1023.5
20260502020250 -17 0 0.0 0.0 0.00 0.00 0.00 1023.5
20260502015503 -17 0 0.0 0.0 0.00 0.00 0.00 1023.5
20260502014715 -17 0 0.0 0.0 0.00 0.00 0.00 1023.6
20260502013928 -17 0 0.0 0.0 0.00 0.00 0.00 1023.5
20260502013140 -17 0 0.0 0.0 0.00 0.00 0.00 1023.5
20260502012353 -17 0 0.0 0.0 0.00 0.00 0.00 1023.5
20260502011606 -17 0 0.0 0.0 0.00 0.00 0.00 1023.6
20260502010819 -17 0 0.0 0.0 0.00 0.00 0.00 1023.6
20260502010031 -17 0 0.0 0.0 0.00 0.00 0.00 1023.7
20260502005244 -17 0 0.0 0.0 0.00 0.00 0.00 1023.7
20260502004447 -17 0 0.0 0.0 0.00 0.00 0.00 1023.6
20260502003701 -17 0 0.0 0.0 0.00 0.00 0.00 1023.5
20260502002911 -17 0 0.0 0.0 0.00 0.00 0.00 1023.6
20260502002124 -17 0 0.0 0.0 0.00 0.00 0.00 1023.5
20260502001337 -17 0 0.0 0.0 0.00 0.00 0.00 1023.5
20260502000550 -17 0 0.0 0.0 0.00 0.00 0.00 1023.5
20260501235802 -17 0 0.0 0.0 0.00 0.00 0.00 1023.6
20260501235015 -17 0 0.0 0.0 0.00 0.00 0.00 1023.5
20260501234228 -17 0 0.0 0.0 0.00 0.00 0.00 1023.5
20260501233440 -17 0 0.0 0.0 0.00 0.00 0.00 1023.6
20260501232653 -17 0 0.0 0.0 0.00 0.00 0.00 1023.7
20260501231906 -17 0 0.0 0.0 0.00 0.00 0.00 1023.7
20260501231114 -17 0 0.0 0.0 0.00 0.00 0.00 1023.8
20260501230327 -17 0 0.0 0.0 0.00 0.00 0.00 1023.8
20260501225540 -17 0 0.0 0.0 0.00 0.00 0.00 1023.8
20260501224752 -17 0 0.0 0.0 0.00 0.00 0.00 1023.8
20260501224004 -17 0 0.0 0.0 0.00 0.00 0.00 1023.8
20260501223216 -17 0 0.0 0.0 0.00 0.00 0.00 1023.7
20260501222428 -17 0 0.0 0.0 0.00 0.00 0.00 1023.7
20260501221641 -17 0 0.0 0.0 0.00 0.00 0.00 1023.7
20260501220853 -17 0 0.0 0.0 0.00 0.00 0.00 1023.8
20260501220104 -17 0 0.0 0.0 0.00 0.00 0.00 1023.8
20260501215314 -17 0 0.0 0.0 0.00 0.00 0.00 1023.8
20260501214526 -17 0 0.0 0.0 0.00 0.00 0.00 1023.8
20260501213739 -17 0 0.0 0.0 0.00 0.00 0.00 1023.7
20260501212951 -17 0 0.0 0.0 0.00 0.00 0.00 1023.6
20260501212203 -17 0 0.0 0.0 0.00 0.00 0.00 1023.6
20260501211414 -17 0 0.0 0.0 0.00 0.00 0.00 1023.5
20260501210627 -17 0 0.0 0.0 0.00 0.00 0.00 1023.5
20260501205840 -17 0 0.0 0.0 0.00 0.00 0.00 1023.5
20260501205050 -17 0 0.0 0.0 0.00 0.00 0.00 1023.4
20260501204253 -17 0 0.0 0.0 0.00 0.00 0.00 1023.4
20260501203506 -17 0 0.0 0.0 0.00 0.00 0.00 1023.4
20260501202719 -17 0 0.0 0.0 0.00 0.00 0.00 1023.4
20260501201932 -17 0 0.0 0.0 0.00 0.00 0.00 1023.3
20260501201142 -17 0 0.0 0.0 0.00 0.00 0.00 1023.2
20260501200353 -17 0 0.0 0.0 0.00 0.00 0.00 1023.2